• In Deutschland
  • Länderverzeichnis
  • Für 7 Tage
  • Wassertemperatur
  • Satellitenkarten
  • Wetterkarte
  • Widgets
  • user-avatar
    Anmelden

    Stündliche Wetter Roth

    Heute, 21 Oktober, Samstag

    Zeit Temperatur Niederschläge Wind Luftdruck Luftfeuchtigkeit
    00:00 +12°C° 0 mm 1 m/S 730 mmHg 92%
    01:00 +12°C° 0 mm 1 m/S 730 mmHg 93%
    02:00 +12°C° 0 mm 1 m/S 730 mmHg 93%
    03:00 +12°C° 0 mm 1 m/S 730 mmHg 93%
    04:00 +12°C° 0 mm 1 m/S 730 mmHg 93%
    05:00 +12°C° 0 mm 1 m/S 730 mmHg 93%
    06:00 +12°C° 0 mm 2 m/S 730 mmHg 93%
    07:00 +12°C° 0 mm 2 m/S 730 mmHg 93%
    08:00 +13°C° 0 mm 2 m/S 730 mmHg 87%
    09:00 +14°C° 0 mm 3 m/S 730 mmHg 81%
    10:00 +17°C° 0 mm 3 m/S 730 mmHg 75%
    11:00 +17°C° 0 mm 3 m/S 730 mmHg 71%
    12:00 +18°C° 0 mm 3 m/S 729 mmHg 67%
    13:00 +19°C° 0 mm 3 m/S 729 mmHg 63%
    14:00 +19°C° 0 mm 3 m/S 729 mmHg 66%
    15:00 +19°C° 0 mm 2 m/S 729 mmHg 68%
    16:00 +19°C° 0 mm 2 m/S 728 mmHg 71%
    17:00 +17°C° 0,2 mm 2 m/S 729 mmHg 76%
    18:00 +16°C° 0,2 mm 2 m/S 729 mmHg 82%
    19:00 +15°C° 0,2 mm 2 m/S 729 mmHg 87%
    20:00 +13°C° 0,3 mm 3 m/S 729 mmHg 88%
    21:00 +13°C° 0,3 mm 4 m/S 729 mmHg 89%
    22:00 +12°C° 0,3 mm 5 m/S 730 mmHg 90%
    23:00 +11°C° 1,4 mm 4 m/S 730 mmHg 90%

    Morgen, 22 Oktober, Sonntag

    Zeit Temperatur Niederschläge Wind Luftdruck Luftfeuchtigkeit
    00:00 +10°C° 1,4 mm 4 m/S 730 mmHg 90%
    01:00 +10°C° 1,4 mm 3 m/S 731 mmHg 91%
    02:00 +10°C° 0,4 mm 3 m/S 731 mmHg 91%
    03:00 +9°C° 0,4 mm 3 m/S 731 mmHg 91%
    04:00 +9°C° 0,4 mm 3 m/S 731 mmHg 90%
    05:00 +9°C° 0,4 mm 3 m/S 731 mmHg 90%
    06:00 +9°C° 0,4 mm 3 m/S 731 mmHg 90%
    07:00 +8°C° 0,4 mm 3 m/S 731 mmHg 90%
    08:00 +9°C° 0,1 mm 3 m/S 731 mmHg 87%
    09:00 +8°C° 0,1 mm 4 m/S 731 mmHg 84%
    10:00 +10°C° 0,1 mm 4 m/S 731 mmHg 81%
    11:00 +10°C° 0,2 mm 4 m/S 731 mmHg 79%
    12:00 +10°C° 0,2 mm 4 m/S 731 mmHg 77%
    13:00 +10°C° 0,2 mm 4 m/S 730 mmHg 75%
    14:00 +10°C° 0,2 mm 4 m/S 730 mmHg 75%
    15:00 +10°C° 0,2 mm 3 m/S 730 mmHg 76%
    16:00 +10°C° 0,2 mm 3 m/S 730 mmHg 77%
    17:00 +9°C° 0,1 mm 2 m/S 730 mmHg 80%
    18:00 +8°C° 0,1 mm 2 m/S 731 mmHg 84%
    19:00 +7°C° 0,1 mm 2 m/S 731 mmHg 87%
    20:00 +7°C° 0 mm 2 m/S 731 mmHg 89%
    21:00 +7°C° 0 mm 3 m/S 731 mmHg 90%
    22:00 +5°C° 0 mm 3 m/S 731 mmHg 91%
    23:00 +5°C° 0 mm 3 m/S 731 mmHg 92%

    übermorgen, 23 Oktober, Montag

    Zeit Temperatur Niederschläge Wind Luftdruck Luftfeuchtigkeit
    00:00 +5°C° 0 mm 3 m/S 731 mmHg 92%
    01:00 +5°C° 0 mm 4 m/S 731 mmHg 93%
    02:00 +5°C° 0 mm 4 m/S 731 mmHg 92%
    03:00 +5°C° 0 mm 4 m/S 731 mmHg 91%
    04:00 +5°C° 0 mm 4 m/S 731 mmHg 89%
    05:00 +6°C° 0,1 mm 4 m/S 732 mmHg 90%
    06:00 +6°C° 0,1 mm 4 m/S 732 mmHg 90%
    07:00 +6°C° 0,1 mm 4 m/S 732 mmHg 90%
    08:00 +6°C° 0,3 mm 4 m/S 732 mmHg 90%
    09:00 +6°C° 0,3 mm 4 m/S 732 mmHg 90%
    10:00 +6°C° 0,3 mm 4 m/S 732 mmHg 90%
    11:00 +7°C° 0,2 mm 4 m/S 732 mmHg 88%
    12:00 +7°C° 0,2 mm 4 m/S 732 mmHg 87%
    13:00 +7°C° 0,2 mm 4 m/S 733 mmHg 86%
    14:00 +7°C° 0,1 mm 4 m/S 733 mmHg 86%
    15:00 +8°C° 0,1 mm 4 m/S 733 mmHg 86%
    16:00 +9°C° 0,1 mm 3 m/S 733 mmHg 87%
    17:00 +8°C° 0 mm 3 m/S 733 mmHg 90%
    18:00 +7°C° 0 mm 3 m/S 733 mmHg 92%
    19:00 +7°C° 0 mm 2 m/S 734 mmHg 95%
    20:00 +7°C° 0 mm 2 m/S 734 mmHg 96%
    21:00 +7°C° 0 mm 2 m/S 734 mmHg 96%
    22:00 +7°C° 0 mm 2 m/S 734 mmHg 96%
    23:00 +7°C° 0 mm 2 m/S 735 mmHg 97%

    24 Oktober, Dienstag

    Zeit Temperatur Niederschläge Wind Luftdruck Luftfeuchtigkeit
    00:00 +7°C° 0 mm 2 m/S 735 mmHg 97%
    01:00 +7°C° 0 mm 2 m/S 735 mmHg 97%
    02:00 +7°C° 0 mm 2 m/S 735 mmHg 97%
    03:00 +8°C° 0 mm 1 m/S 735 mmHg 96%
    04:00 +8°C° 0 mm 1 m/S 735 mmHg 96%
    05:00 +8°C° 0 mm 1 m/S 735 mmHg 96%
    06:00 +8°C° 0 mm 1 m/S 735 mmHg 95%
    07:00 +9°C° 0 mm 1 m/S 736 mmHg 95%
    08:00 +9°C° 0 mm 1 m/S 736 mmHg 93%
    09:00 +9°C° 0 mm 2 m/S 736 mmHg 90%
    10:00 +10°C° 0 mm 2 m/S 736 mmHg 88%
    11:00 +10°C° 0 mm 2 m/S 736 mmHg 85%
    12:00 +12°C° 0 mm 2 m/S 736 mmHg 81%
    13:00 +13°C° 0 mm 1 m/S 736 mmHg 78%
    14:00 +13°C° 0 mm 1 m/S 736 mmHg 81%
    15:00 +13°C° 0 mm 1 m/S 736 mmHg 83%
    16:00 +13°C° 0 mm 1 m/S 736 mmHg 85%
    17:00 +12°C° 0 mm 1 m/S 736 mmHg 88%
    18:00 +12°C° 0 mm 1 m/S 737 mmHg 91%
    19:00 +11°C° 0 mm 1 m/S 737 mmHg 94%
    20:00 +11°C° 0 mm 1 m/S 737 mmHg 94%
    21:00 +11°C° 0 mm 1 m/S 737 mmHg 95%
    22:00 +11°C° 0 mm 1 m/S 737 mmHg 96%
    23:00 +11°C° 0 mm 1 m/S 737 mmHg 96%

    25 Oktober, Mittwoch

    Zeit Temperatur Niederschläge Wind Luftdruck Luftfeuchtigkeit
    00:00 +11°C° 0 mm 1 m/S 737 mmHg 96%
    01:00 +11°C° 0 mm 1 m/S 737 mmHg 96%
    02:00 +11°C° 0 mm 1 m/S 737 mmHg 96%
    03:00 +11°C° 0 mm 1 m/S 737 mmHg 96%
    04:00 +11°C° 0 mm 1 m/S 737 mmHg 96%
    05:00 +11°C° 0 mm 1 m/S 737 mmHg 96%
    06:00 +10°C° 0 mm 1 m/S 737 mmHg 96%
    07:00 +10°C° 0 mm 1 m/S 737 mmHg 96%
    08:00 +11°C° 0 mm 1 m/S 737 mmHg 92%
    09:00 +12°C° 0 mm 1 m/S 737 mmHg 88%
    10:00 +14°C° 0 mm 1 m/S 737 mmHg 84%
    11:00 +15°C° 0 mm 1 m/S 737 mmHg 81%
    12:00 +16°C° 0 mm 1 m/S 737 mmHg 77%
    13:00 +18°C° 0 mm 1 m/S 736 mmHg 74%
    14:00 +15°C° 0 mm 0 m/S 736 mmHg 75%
    15:00 +15°C° 0 mm 0 m/S 736 mmHg 77%
    16:00 +15°C° 0 mm 0 m/S 736 mmHg 79%
    17:00 +14°C° 0 mm 0 m/S 736 mmHg 83%
    18:00 +13°C° 0 mm 1 m/S 736 mmHg 87%
    19:00 +12°C° 0 mm 1 m/S 737 mmHg 91%
    20:00 +12°C° 0 mm 1 m/S 737 mmHg 92%
    21:00 +11°C° 0 mm 1 m/S 737 mmHg 93%
    22:00 +11°C° 0 mm 1 m/S 737 mmHg 93%
    23:00 +11°C° 0 mm 1 m/S 737 mmHg 94%

    26 Oktober, Donnerstag

    Zeit Temperatur Niederschläge Wind Luftdruck Luftfeuchtigkeit
    00:00 +11°C° 0 mm 1 m/S 737 mmHg 94%
    01:00 +10°C° 0 mm 1 m/S 737 mmHg 94%
    02:00 +10°C° 0 mm 1 m/S 737 mmHg 94%
    03:00 +10°C° 0 mm 1 m/S 737 mmHg 94%
    04:00 +10°C° 0 mm 1 m/S 737 mmHg 94%
    05:00 +10°C° 0 mm 1 m/S 737 mmHg 94%
    06:00 +9°C° 0 mm 1 m/S 737 mmHg 94%
    07:00 +9°C° 0 mm 1 m/S 737 mmHg 94%
    08:00 +11°C° 0 mm 1 m/S 737 mmHg 89%
    09:00 +12°C° 0 mm 1 m/S 737 mmHg 84%
    10:00 +14°C° 0 mm 1 m/S 737 mmHg 78%
    11:00 +15°C° 0 mm 1 m/S 737 mmHg 74%
    12:00 +18°C° 0 mm 1 m/S 737 mmHg 69%
    13:00 +19°C° 0 mm 1 m/S 737 mmHg 64%
    14:00 +19°C° 0 mm 1 m/S 737 mmHg 68%
    15:00 +18°C° 0 mm 1 m/S 736 mmHg 71%
    16:00 +18°C° 0 mm 1 m/S 736 mmHg 74%
    17:00 +15°C° 0 mm 1 m/S 736 mmHg 79%
    18:00 +14°C° 0 mm 1 m/S 736 mmHg 84%
    19:00 +13°C° 0 mm 1 m/S 736 mmHg 88%
    20:00 +12°C° 0 mm 1 m/S 737 mmHg 89%
    21:00 +12°C° 0 mm 1 m/S 737 mmHg 90%
    22:00 +12°C° 0 mm 1 m/S 737 mmHg 90%
    23:00 +12°C° 0 mm 1 m/S 737 mmHg 91%
    Mehr zeigen